Location: Alladorf
(49.9620°N, 11.3790°E)
Time: 20:25:03
(UTC+00:00)

Cosmos 1937 Rocket - Pass Details

Date: 29 November 2020
Orbit: 745 x 781 km, 74.0° (Epoch: 25 January)

Event Time Altitude Azimuth Distance (km) Brightness Sun altitude
Rises 05:03:24 0° 203° (SSW) 3,181 6.6 -16.3°
Reaches altitude 10° 05:05:44 10° 204° (SSW) 2,264 5.8 -15.9°
Maximum altitude 05:10:53 85° 293° (WNW) 763 3.4 -15.1°
Drops below altitude 10° 05:16:07 10° 23° (NNE) 2,299 6.1 -14.3°
Sets 05:18:30 0° 24° (NNE) 3,235 6.8 -13.9°
